Starlink 6047

operational
NORAD ID: 56460 Int'l Des: 2023-064 Owner: SPXS Country: US Constellation: starlink
LEOCIRCULAR

About Starlink 6047

Description loading...

Live Position

Loading 3D Globe...

Upcoming Passes

Altitude History

Altitude vs Time

uPlot chart will show altitude changes over time

Two-Line Element Set

1 56460U 23064N 26034.95045763 .00000528 00000-0 52038-4 0 9997
2 56460 69.9983 229.4670 0002356 262.5703 97.5189 14.98332025150190
Epoch: Feb 3, 2026 • Age: 26 hours

Current Status

Altitude 576.8 km
Velocity 7.57 km/s
Sub-Earth Point -12.26°S, 81.26°E
Launch Date May 10, 2023
Age 2.7 years
Type internet

Technical Details

Classification Payload
Mass 305.00 kg
Dry Mass 290.00 kg
Total Mass 305.00 kg
Length 0.20 m
Diameter 2.80 m
Span 9.00 m
Shape Box + pan
Manufacturer SPXS
Bus Type Starlink
Phase Status In Orbit
Owner/State SPXS/US

Large Constellations

Loading constellations...